找回密碼
 會員申請加入
搜索

ADVERTISEMENT
(B0)香港巴士車務及車廂設備 (B1)香港巴士廣告消息/廣告車行踪 (B2)香港巴士討論 [熱門] [精華] (B3)巴士攝影作品貼圖區 [熱門] [精華] (B3i)即拍即貼 -手機相&翻拍Mon相 (B4)兩岸三地巴士討論 [精華] (B5)外地巴士討論 [精華]

Advertisement


(B6)旅遊巴士及過境巴士 [精華] (B7)巴士特別所見 (B11)巴士精華區 (B22)巴士迷吹水區   (V)私家車,商用車,政府及特種車輛 [精華]
(A6)相片及短片分享/攝影技術 (A10)香港地方討論 [精華] (A11)消費著數及飲食資訊 (A16)建築物機電裝置及設備 (A19)問路專區 (N)其他討論題目  
(F1)交通路線集思建議區 (C2)航空 [精華] (C3)海上交通及船隻 [精華] (D1)公共交通有關商品 [精華]   (Y)hkitalk.net會員福利部 (Z)站務資源中心
(R1)香港鐵路 [精華] (R2)香港電車 [精華] (R3)港外鐵路 [精華]   (O1)omsi討論區 (O2)omsi下載區 (O3)omsi教學及求助區
(M1)小型巴士綜合討論 (M2)小型巴士多媒體分享區 (M3)香港小型巴士字軌表        
 
ADVERTISEMENT

 

收藏本版 (6)|訂閱

外地巴士討論 (B5) 今日: 0|主題: 10749|排名: 6 

版主: admin305, admin77

推薦主題

作者 回復/查看 最後發表
[Japan] 京成巴士 Keisei Bus - Tokyo BRT (ISUZU ERGA DUO) hkitalk.media 2024-4-6 09:55 14438 hkitalk.media 2024-4-6 09:56
[Japan] 鳥取日ノ丸自動車日野巴士 LB9087 2024-4-5 23:33 03694 LB9087 2024-4-5 23:33
[Japan] 都営バス S-G714 都営バス100周年記念復刻 hkitalk.media 2024-3-28 12:03 04431 hkitalk.media 2024-3-28 12:03
[Japan] 沖繩威馳騰純電動巴士 hkitalk.media 2024-3-28 11:43 15458 hkitalk.media 2024-3-28 11:44
[Singapore] 匯達交通競投新加坡 Seletar 巴士合約 精華1 hkitalk.media 2024-3-4 21:59 812701 Fuk19805 2024-3-28 01:28
[Japan] [Tokyo] SCANIA K410 / Wright Eclipse Gemini 3 (品川200え111) hkitalk.media 2024-3-25 17:52 15157 hkitalk.media 2024-3-25 17:53
[Japan] 都營巴士100週年 x 繪畫比賽 車身廣告 (新上畫) hkitalk.media 2024-3-25 16:58 14404 hkitalk.media 2024-3-25 16:59
[Japan] 都営バス100周年記念旧塗装 (練馬200 か3684) hkitalk.media 2024-3-25 10:40 04003 hkitalk.media 2024-3-25 10:40
[Japan] [Tokyo] Neoplan Skyliner N122/3 hkitalk.media 2024-3-24 16:39 14804 hkitalk.media 2024-3-24 16:39
[UK] 回鄉記 巴士篇 (3):Oxford 雜攝 S3BL100 2024-3-22 01:22 07594 S3BL100 2024-3-22 01:22
[Japan] 那覇機場禁區內JAL接駁巴士 hkitalk.media 2024-3-21 10:45 04368 hkitalk.media 2024-3-21 10:45
[UK] 新車速遞 Wright StreetDeck Electroliner [First Leeds] 精華1 toby_tl10 2024-3-20 04:34 27554 KMBe500 2024-3-20 16:55
[Germany] Leipzig 掛接巴士兩攝 區麗芝 2024-3-18 23:59 04277 區麗芝 2024-3-18 23:59
[US] Seattle Sound Transit訂購33部Enviro500EV sunhoo 2024-2-15 14:38 67247 hkaiw 2024-3-18 22:08
[UK] 在英國Ensign廠房的前九巴AVW96 hkitalk.media 2024-3-16 12:15 06438 hkitalk.media 2024-3-16 12:15
[Singapore] 由 SBST 轉投 SMRT 的 Scania K230UB 精華1 hkitalk.media 2024-3-15 16:05 18863 hkitalk.media 2024-3-15 16:06
[UK] 回鄉記 巴士篇 (2):愛丁堡雜攝 (多圖) S3BL100 2024-3-11 23:46 011561 S3BL100 2024-3-11 23:46
[Japan] 日本升學巴士見聞錄・2023年篇 精華1 cyc_yin 2024-3-7 21:29 911758 cyc_yin 2024-3-9 21:39
[UK] 回鄉記 巴士篇 (1):London Bus Museum (多圖) 精華1 S3BL100 2024-3-4 10:02 620318 s3n370 2024-3-6 06:29
[Japan] 羽田機場數攝 nwfb1001 2024-3-5 15:16 04103 nwfb1001 2024-3-5 15:16
[Malaysia] 馬來西亞 Rapid KL Volvo B8L 全車焚毀 hkitalk.media 2024-3-5 12:09 29342 KMBe500 2024-3-5 12:22
[UK] [UK] Winter Bus Event @ Epping Ongar Railway (多圖+片) S3BL100 2024-2-26 07:30 525135 JH_LE4612 2024-3-4 05:43
[Germany] Leipzig 雙層觀光巴士幾攝 區麗芝 2024-2-26 22:29 14881 EL8061 2024-2-27 20:34
[Japan] [JRバス関東, 二階建てバス] SCANIA(スカニア)TDX24, J-InterCity DD barca_399 2024-2-12 13:47 04523 barca_399 2024-2-12 13:47
[Japan] [SCANIA K360UA] 西鉄福岡都心循環BRT, 連節バス barca_399 2024-2-12 13:46 04374 barca_399 2024-2-12 13:46
[UK] 曼城巴士網絡似乎大洗牌? johnnybus 2024-2-8 03:18 16126 Fuk19805 2024-2-8 14:43
[Others] Bus Snapshots in PITX, Manila, Philippine 2024 - 1 ac 2024-2-7 20:51 016263 ac 2024-2-7 20:51
[Germany] 德國柏林 Enviro500 自焚燒通頂 精華1 hkitalk.media 2024-1-21 12:09 610488 KMBe500 2024-2-1 13:45
[Others] 菲達沃機場附近巴士隨攝 Bus Snapshot near Davao Airport, Ph. 1/2024 -1 ac 2024-1-31 16:56 06885 ac 2024-1-31 16:56
[Japan] 富山200円市內循環線 LB9087 2024-1-22 23:36 14785 1320 2024-1-23 16:59
[Japan] 前神奈川中央交通的富山三菱Fuso Aerostar LB9087 2024-1-15 23:57 04515 LB9087 2024-1-15 23:57
[Japan] 來自西武巴士的富山地方鉄道二手巴士 LB9087 2024-1-15 23:55 06014 LB9087 2024-1-15 23:55
[Japan] 函館巴士 三菱Aerostar nwfb1001 2024-1-15 11:32 04304 nwfb1001 2024-1-15 11:32
[Japan] 函館巴士 日野Rainbow nwfb1001 2024-1-15 11:20 03990 nwfb1001 2024-1-15 11:20
[New Zealand] Ritchies Transport 公司原色 E500 MMC 12.5m 精華1 KY5393 2024-1-4 22:43 47532 KY5393 2024-1-15 00:52
[Japan] 日本神戶北巴士的廣播設有粵語廣播 KG1428 2024-1-13 00:02 04594 KG1428 2024-1-13 00:02
[UK] 在英國Ensign廠房待提取的First Norwich新車 hkitalk.media 2024-1-10 12:35 16500 33606 2024-1-12 22:32
[UK] 路霸全面改用氫化植物油 s20131417 2024-1-12 16:40 15522 33606 2024-1-12 22:31
[Japan] 函館巴士KC-MP217K nwfb1001 2024-1-11 09:30 04254 nwfb1001 2024-1-11 09:30
[Japan] 岡電安田產業全車身廣告三菱Aerostar LB9087 2024-1-10 22:03 04155 LB9087 2024-1-10 22:03
[UK] 網傳:倫敦巴士閉路電視錯誤顯示車長腳踏鏡頭畫面 SN56AWP 2024-1-10 07:41 15882 GA6072 2024-1-10 11:37
[Japan] 警察運兵車 nwfb1001 2024-1-8 09:12 04371 nwfb1001 2024-1-8 09:12
[Japan] 鳥取日本交通日野Rainbow@78H LB9087 2024-1-1 22:09 04281 LB9087 2024-1-1 22:09
AVW96已抵達英國 精華1 hkitalk.media 2023-12-22 11:25 713459 s20131417 2023-12-24 10:44
[UK] Streetdeck Electroliner @ Norwich hkitalk.media 2023-12-20 14:41 16162 hkitalk.media 2023-12-20 14:41
[Singapore] 新加坡SMRT 75線前往濱海中心最後一日出現跨廠特 hkitalk.media 2023-12-17 21:41 05549 hkitalk.media 2023-12-17 21:41
[UK] 前九巴W6S1 @ Ensignbus 廠房 hkitalk.media 2023-12-15 17:19 78653 s3n370 2023-12-16 19:31
[Japan] 岡山的(臨時)巴士路線 LB9087 2023-12-14 22:42 04417 LB9087 2023-12-14 22:42
[UK] Wright StreetDeck Electroliner (BK73AEV) hkitalk.media 2023-12-12 15:50 06105 hkitalk.media 2023-12-12 15:50
[Japan] 岡山宇野自動車新款三菱Aero Star LB9087 2023-12-8 23:54 04592 LB9087 2023-12-8 23:54
[Japan] 富山地鐵巴士日野混能Blue Ribbon LB9087 2023-12-8 23:49 04273 LB9087 2023-12-8 23:49
[Japan] 披上石川動物園廣告的北陸鉄道日野Blue Ribbon LB9087 2023-12-8 23:39 03827 LB9087 2023-12-8 23:39
[Japan] 日の丸自動車新舊款HINO Rainbow LB9087 2023-12-4 22:52 14802 mcwcow 2023-12-8 15:05
[Japan] 去日本旅行函館所見 mats01 2023-12-7 23:12 15114 Fuk19805 2023-12-7 23:18
[Japan] 岡山市區內100円循環線 LB9087 2023-12-5 22:26 04575 LB9087 2023-12-5 22:26
前城巴 MAN NL262 在新西蘭待售 33606 2023-12-3 15:17 05478 33606 2023-12-3 15:17
[Singapore] SBS Transit拖車 拖走故障的 MAN A95 hkitalk.media 2023-12-3 14:54 15745 hkitalk.media 2023-12-3 14:54
[Japan] 前和歌山的三菱MK27HM LB9087 2023-11-30 21:27 04251 LB9087 2023-11-30 21:27
[New Zealand] 奧克蘭 Kinetic Group (NZBus) - CRRC 中車 電巴 KY5393 2023-11-26 13:01 25950 JCTK 2023-11-30 15:58
[Japan] 岡山貓站長小玉主題巴士 LB9087 2023-11-28 23:39 04576 LB9087 2023-11-28 23:39
[Japan] 鳥取100円循環線 LB9087 2023-11-27 23:58 04553 LB9087 2023-11-27 23:58
[Japan] 富山縣前神奈川中央交通三菱 Aerostar LB9087 2023-11-27 23:47 04227 LB9087 2023-11-27 23:47
[Japan] 金澤北陸鉄道日野Blue Ribbon LB9087 2023-11-27 23:39 03998 LB9087 2023-11-27 23:39
[Singapore] 新加坡LTA公佈360部電動巴士招標結果 Costa 2023-11-25 23:07 36385 VA73@2A 2023-11-27 20:31
[Japan] 宮崎利蘭 PD3 tridents 2023-11-26 13:40 04205 tridents 2023-11-26 13:40
[Japan] 境港鬼太郎HINO poncho LB9087 2023-11-25 23:08 04262 LB9087 2023-11-25 23:08
[Japan] 前神奈川中央交通的富山三菱扶桑Aerostar LB9087 2023-11-25 22:49 03941 LB9087 2023-11-25 22:49
[Japan] 鳥取Hino Liesse小巴 LB9087 2023-11-24 23:44 04557 LB9087 2023-11-24 23:44
[Japan] 剛好行了二十年的岡山三菱MK LB9087 2023-11-24 23:37 04289 LB9087 2023-11-24 23:37
[Japan] 行了接近三十年的三菱U-MP618M LB9087 2023-11-23 23:12 04422 LB9087 2023-11-23 23:12
[Japan] 鳥取Pokemon穿山鼠廣告巴士 LB9087 2023-11-23 22:52 04299 LB9087 2023-11-23 22:52
[Japan] 岡山火車寶寶主題巴士 LB9087 2023-11-23 22:48 04155 LB9087 2023-11-23 22:48
[Japan] 富山縣三菱車仔 LB9087 2023-11-21 22:55 04434 LB9087 2023-11-21 22:55
[Japan] 鳥取米子市的HINO Blue Ribbon LB9087 2023-11-21 22:37 04047 LB9087 2023-11-21 22:37
[Japan] 行了24年的富山縣二手三菱MK LB9087 2023-11-20 22:55 14363 1320 2023-11-21 15:21
[Japan] 前京都市交通局的北鐵能登巴士三菱 KK-MJ27HL LB9087 2023-11-20 22:50 04229 LB9087 2023-11-20 22:50
[Japan] 前往豬谷的巴士 LB9087 2023-11-18 21:26 04100 LB9087 2023-11-18 21:26
[Japan] 富山縣的前東京都交通局(H-K613) 三菱MK27HM LB9087 2023-11-18 21:11 04290 LB9087 2023-11-18 21:11
[Japan] 富山縣低地台三菱MK LB9087 2023-11-18 20:55 04293 LB9087 2023-11-18 20:55
[Germany] 德國柏林 BVG 全數 MAN A39 雙層巴士已退役 hkitalk.media 2023-11-16 01:01 18877 Popcorn 2023-11-16 17:08
[Singapore] 新加坡 FTBCI 單層三門電動巴士今日 (14/11) 首航 精華1 hkitalk.media 2023-11-14 17:50 17822 Fuk19805 2023-11-14 19:34
[New Zealand] [NZ] FOTON C12L EV Bus Funglf 2023-11-11 11:08 04779 Funglf 2023-11-11 11:08
[UK] ADL 發佈 E100EV & E400EV  ...23 AVBWU291 2023-11-1 21:36 2022317 s20131417 2023-11-9 01:18
[Singapore] 新加坡「S52」巴士路線 hkitalk.media 2023-11-4 21:26 05656 hkitalk.media 2023-11-4 21:26
[UK] 50年車齡會場穿梭巴士 toby_tl10 2023-10-17 01:40 26879 toby_tl10 2023-10-22 19:29
[Singapore] 新加坡 SBS Transit CDGE車身Volvo B9TL 最後服務夜 hkitalk.media 2023-9-23 12:20 27700 KX8724 2023-10-21 14:31
[UK] Deutsche Bahn 出售 Arriva Group XS8394 2023-10-20 12:05 06085 XS8394 2023-10-20 12:05
[UK] 踏入中年的NBfL Fuk19805 2023-10-15 21:41 78249 Fuk19805 2023-10-18 22:50
[UK] 前九巴Leyland Olympian(3BL50) 出席英國交通博物館活動 精華1 hkitalk.media 2023-10-17 14:17 613400 hkitalk.media 2023-10-17 14:22
[Japan] 一位巴士司機坦白了首都圈巴士班次減少的原因 GA6072 2023-10-8 19:20 36385 s20131417 2023-10-13 16:42
[UK] 車身各不同 之 Volvo B5LH篇 Fuk19805 2023-9-26 23:06 39269 Fuk19805 2023-10-8 17:32
[New Zealand] Ritchies Transport 奧克蘭 ADL BYD 12.6 米 三軸 E200 EV XLB 精華1 KY5393 2023-9-25 20:40 47908 KY5393 2023-10-4 22:39
[Singapore] 再見! 新加坡 SBS Transit CDGE車身Volvo B9TL hkitalk.media 2023-9-26 16:36 26433 hkitalk.media 2023-9-26 16:39
[尋找他鄉的故事] 前城巴 Leyland Olympian #111 的下場 fp8329 2023-9-22 11:43 16405 Swedenscania 2023-9-25 10:19
Lothian購買50部Volvo BZL w1w2w3 2023-9-21 16:00 05042 w1w2w3 2023-9-21 16:00
[Japan] 日本福崗開蓬巴士 hkitalk.media 2023-9-18 12:55 55611 DIH 2023-9-21 15:59
[Others] 法國里昂、瑞士日內瓦巴士 cyc_yin 2023-9-20 20:50 25506 cyc_yin 2023-9-20 21:17
[Others] [2023/08] 首爾巴士隨攝 Fuk19805 2023-9-10 13:29 07890 Fuk19805 2023-9-10 13:29
[Japan] 千葉縣——日東交通 N38 2023-8-29 13:47 25644 N38 2023-8-30 05:25
[Japan] 根室交通 N38 2023-8-29 13:36 04755 N38 2023-8-29 13:36
[影片] 前新巴蛋撻 #2066 @ Stroud Vintage Bus Show MP7697 2023-8-25 11:36 06143 MP7697 2023-8-25 11:36
[Japan] Nishitetsu 由二手柴油巴士改造而成的電動巴士 hkitalk.media 2023-8-24 12:46 15707 hkitalk.media 2023-8-24 12:46
[Others] Haugesund, Norway 的Scania開蓬巴士 hkitalk.media 2023-8-23 14:18 04578 hkitalk.media 2023-8-23 14:18
[Singapore] Singapore LTA Trial Bus - SG4013A (BYD B12A03) hkitalk.media 2023-8-22 11:03 07115 hkitalk.media 2023-8-22 11:03
[Others] Haugesund, Norway 的Scania三軸單層巴士 hkitalk.media 2023-8-22 10:55 04701 hkitalk.media 2023-8-22 10:55
[Singapore] 涉及2年前武吉巴督巴士轉換站翻側意外的SBS6403H @ 劏車場 hkitalk.media 2023-8-18 22:01 110072 hkitalk.media 2023-8-19 21:33
[Singapore] 爆冷, SMRT竟然搶到Jurong West Package 33606 2023-8-18 19:01 26899 XZ6439 2023-8-19 11:43
[Others] 挪威的比亞迪巴士 hkitalk.media 2023-8-16 10:28 05188 hkitalk.media 2023-8-16 10:28
[UK] Buses in Skjolden (Norway) hkitalk.media 2023-8-15 16:50 16450 hkitalk.media 2023-8-15 16:51
[Others] Mercedes buses in Island of Kos (Greece) hkitalk.media 2023-8-15 16:10 27758 hkitalk.media 2023-8-15 16:11
[Canada] [YUL] Novabus LFS articulated in Montreal billlmf 2023-8-11 03:26 011724 billlmf 2023-8-11 03:26
[UK] 倫敦兩軸紅色B5LH蛋 ATE71 2023-8-4 22:58 36518 ATE71 2023-8-9 22:10
[UK] [影片] 中電蘭 #312 @ Rail Replacement 飛馳英國Motorway MP7697 2023-8-7 21:59 06042 MP7697 2023-8-7 21:59
[UK] 倫敦紅色E400 ATE71 2023-8-4 22:55 05431 ATE71 2023-8-4 22:55
[Japan] 札幌夜攝 nwfb1001 2023-7-27 12:58 04350 nwfb1001 2023-7-27 12:58
[UK] [倫敦]首條Superloop路線“投入服務”  ...2 s3n370 2023-7-15 19:41 1512380 s3n370 2023-7-27 01:51
[Japan] 老Fuso nwfb1001 2023-7-21 11:29 14839 Fuk19805 2023-7-21 19:47
[Japan] Wright Eclipse Gemini3 Scania ronaldsuen 2023-7-16 21:49 06694 ronaldsuen 2023-7-16 21:49
[UK] [2023/06] 類火車雜攝 Fuk19805 2023-7-16 18:24 07152 Fuk19805 2023-7-16 18:24
[Japan] [2023.04/05/06] 九州巴士雜攝 DIH 2023-7-16 13:30 111475 DIH 2023-7-16 13:42
[Japan] [2023/07] 京都巴士雜攝 Fuk19805 2023-7-15 22:46 06599 Fuk19805 2023-7-15 22:46
[Japan] 日本一距離の長い路線バス- 八木新宮線 kokchun 2023-7-6 20:47 59477 JZ3968 2023-7-15 22:04
[UK] Stagecoach Volvo BZL/MCV electric double-deckers @ Cambridge hkitalk.media 2023-7-15 10:31 19109 hkitalk.media 2023-7-15 10:32
[Japan] JR東日本気仙沼線BRT kokchun 2023-7-12 21:44 07944 kokchun 2023-7-12 21:44
[Others] 北韓發佈最新型無軌電車巴士 gm701816 2023-7-5 20:17 05456 gm701816 2023-7-5 20:17
[UK] [Cambridge] Volvo BZL hkitalk.media 2023-7-5 17:23 16303 hkitalk.media 2023-7-5 17:23
[UK] Dennis Dart (#2066)帶著新巴標誌出席Stroud Vintage Bus Show 2023 精華1 hkitalk.media 2023-7-2 21:27 211430 hkitalk.media 2023-7-3 00:25
[UK] Volvo 7900 KR6515 2023-7-2 04:27 05631 KR6515 2023-7-2 04:27
[UK] BYD is in Here KR6515 2023-7-1 02:19 05995 KR6515 2023-7-1 02:19
[UK] 英國Sanders Coaches三軸Volvo B8L配MCV車身 hkitalk.media 2023-6-27 15:57 06640 hkitalk.media 2023-6-27 15:57
[UK] 宇通 U11DD 樣辦車將交付英國 ccchhhuuunnn 2023-6-14 17:49 48407 Fuk19805 2023-6-22 09:32
[Canada] Translink 620 Hwy 99 Offramp @ Steveston Hwy to Tsawwassen Ferry Terminal ricky 2023-6-19 11:16 04356 ricky 2023-6-19 11:16
[Canada] Vancouver Translink 620 (Tsawwassen Ferry to Bridgeport Station) ricky 2023-6-16 21:54 36376 ricky 2023-6-19 10:49
[UK] London Bus Museum special heritage event - 65/71 (多圖) 精華1 Mos_Lok 2023-6-13 09:57 024470 Mos_Lok 2023-6-13 09:57
[Singapore] 新加坡 Service 825 特見 hkitalk.media 2023-6-12 11:18 05783 hkitalk.media 2023-6-12 11:18
[UK] London Routemaster 數攝 區麗芝 2023-6-3 22:59 06065 區麗芝 2023-6-3 22:59
[US] [San Francisco, CA, US] 宏偉的 Salesforce Transit Center (多圖) S3BL100 2023-5-17 22:06 26548 ma212223 2023-6-3 13:31
[US] Alaska 阿拉斯加的巴士 yuenpo 2023-6-3 12:47 05940 yuenpo 2023-6-3 12:47
[US] [San Francisco, CA, US] Big Bus 開頂 E400 S3BL100 2023-5-25 02:27 46968 superfung500 2023-5-26 01:52
[Singapore] 新捷運405號線獲當地傳媒報道 kay 2023-5-17 21:01 16039 sq285 2023-5-17 21:03
[Germany] <貼圖> 柏林 - 雙層MAN 區麗芝 2023-5-13 23:54 05532 區麗芝 2023-5-13 23:54
[Others] 似係EE8847? ad63 2023-5-9 17:44 04903 ad63 2023-5-9 17:44
[UK] 英國巴士集中討論區 (1) 精華1  ...2 US261-80K 2023-2-8 16:52 1624839 hkitalk.media 2023-5-7 14:26
[Japan] [BENZ CITARO-G ] 西鉄福岡都心循環BRT, 連節バス barca_399 2023-4-30 12:31 05109 barca_399 2023-4-30 12:31
[Japan] 幕張地區數攝 nwfb1001 2023-4-19 15:38 04704 nwfb1001 2023-4-19 15:38
[UK] First South West E500鐵甲威入左焗油房翻油嘅一年後 PV4394 2023-4-12 07:23 08613 PV4394 2023-4-12 07:23
[UK] 西雞(城市版) Fuk19805 2023-4-6 23:53 06682 Fuk19805 2023-4-6 23:53
[Singapore] 新加坡 Volvo BZL @ Service 990 hkitalk.media 2023-3-31 12:40 06869 hkitalk.media 2023-3-31 12:40
[Japan] 東京開蓬Benz LB9087 2023-3-29 22:27 05654 LB9087 2023-3-29 22:27
[Japan] [多圖] 日本升學巴士見聞錄・2022下半年  ...2 cyc_yin 2023-3-24 21:24 1316338 cyc_yin 2023-3-29 20:41
[Japan] 京阪京都交通日野巴士 LB9087 2023-3-28 22:27 04563 LB9087 2023-3-28 22:27
[Japan] 東京HATO BUS Wright車身Scania LB9087 2023-3-27 23:26 05754 LB9087 2023-3-27 23:26
[Japan] 東京HINO poncho低地台小巴 LB9087 2023-3-22 21:42 04963 LB9087 2023-3-22 21:42
[Japan] 橫濱高達塗裝ISUZU Erga Duo Hybrid LB9087 2023-3-21 21:14 05190 LB9087 2023-3-21 21:14
[Japan] 東京站的都營ISUZU ERGA LB9087 2023-3-21 19:38 04656 LB9087 2023-3-21 19:38
[Japan] 披上了三菱日聯金融廣告的都營Toyota Sora LB9087 2023-3-21 19:07 04560 LB9087 2023-3-21 19:07
[Japan] 關西國際機場T1至T2 Benz Citaro 18米掛接免費穿梭巴士 LB9087 2023-3-21 18:59 05111 LB9087 2023-3-21 18:59
Volvo Buses 專注生產巴士底盤, 不再生產連車身巴士 US261-80K 2023-3-20 16:48 15141 ccatvb 2023-3-20 19:50
[Singapore] 新加坡 Volvo BZL (車長訓練) 精華1 hkitalk.media 2023-3-13 11:21 012689 hkitalk.media 2023-3-13 11:21
[Others] 香港冠忠巴士與沙地阿拉伯Hafil投資 leslie 2023-3-9 10:58 26153 ccatvb 2023-3-11 21:04
[UK] 雪中巴士 Fuk19805 2023-3-8 17:02 06233 Fuk19805 2023-3-8 17:02
[Japan] (東京) 今日都營巴士雜攝 mak5052 2023-3-7 22:40 06348 mak5052 2023-3-7 22:40
[UK] [2023-1] Mini Trip Report 5: 如何在火車罷工時穿州過省 Fuk19805 2023-2-17 05:09 612617 Fuk19805 2023-3-6 20:56
[UK] London Zone 1仲有Gemini 1? Fuk19805 2023-3-2 19:47 06057 Fuk19805 2023-3-2 19:47
[UK] 前九巴 Streetdeck W6S1在英國 Ensignbus 即將完成改裝 hkitalk.media 2023-2-24 13:15 113183 魔雪巴士頻道 2023-2-24 13:28
[Japan] Hino 中止與比亞迪合作推出 Poncho Z EV hkitalk.media 2023-2-22 22:53 27607 herman15hk 2023-2-23 00:00
[Japan] 箱根地區隨攝 nwfb1001 2023-2-21 14:20 04230 nwfb1001 2023-2-21 14:20
[UK] London - Wright StreetDeck Electroliner hkitalk.media 2023-2-17 17:56 17020 hkitalk.media 2023-2-17 17:56
[Singapore] 新加坡兩梯三門ADL Enviro500 SG6354C hkitalk.media 2023-2-17 17:22 16269 hkitalk.media 2023-2-17 17:22
[Singapore] 新加坡宇通電動雙層巴士 SG7006B hkitalk.media 2023-2-17 16:45 16006 jeffreyau 2023-2-17 16:58
[Singapore] RD3193Y NP Autonomous Bus hkitalk.media 2023-2-17 11:38 15090 hkitalk.media 2023-2-17 11:39
[UK] Stagecoach East Midlands (#10975 SN18KTK) 'Pronto' service hkitalk.media 2023-2-16 16:54 05390 hkitalk.media 2023-2-16 16:54
[UK] Sheffield 隨攝 hkitalk.media 2023-2-16 16:49 15591 hkitalk.media 2023-2-16 16:50
[UK] Hulleys of Baslow, ADL Enviro (#7 YX09HZJ) hkitalk.media 2023-2-16 16:45 04940 hkitalk.media 2023-2-16 16:45
[Japan] 日本神戶有馬溫泉巴士 hkitalk.media 2023-2-11 10:17 14339 hkitalk.media 2023-2-11 10:17
[Japan] 日本名古屋巿巴士 hkitalk.media 2023-2-11 10:15 14833 hkitalk.media 2023-2-11 10:15
[Japan] 大阪往名古屋巴士 hkitalk.media 2023-2-9 10:32 04740 hkitalk.media 2023-2-9 10:32
[Japan] 日本京都巿巴士 hkitalk.media 2023-2-8 17:56 45489 hkitalk.media 2023-2-8 17:59
[Japan] 日本高山巿巴士 hkitalk.media 2023-2-8 17:30 14539 hkitalk.media 2023-2-8 17:30
[Others] 曼谷雜攝 mak5052 2023-1-24 22:05 05698 mak5052 2023-1-24 22:05
[Canada] 溫哥華特見? E21A 2023-1-5 15:34 25621 680X 2023-1-17 15:42
[UK] Dennis Trident隨攝 Fuk19805 2023-1-12 03:38 06368 Fuk19805 2023-1-12 03:38
[Others] Bigbus Paris hkitalk.media 2023-1-9 12:46 14983 hkitalk.media 2023-1-9 12:47
[Others] 巴黎巴士隨攝 hkitalk.media 2023-1-9 12:40 15004 hkitalk.media 2023-1-9 12:40
[Japan] [2022.11/12] 関西兵庫巴士雜攝 DIH 2023-1-7 16:46 07248 DIH 2023-1-7 16:46
[Others] Ex Berlin MAN SD202 @ Lisbon hkitalk.media 2023-1-5 11:52 15121 hkitalk.media 2023-1-5 11:53
[UK] [2014/2019 舊相] Llanberis 隨攝 JH_LE4612 2023-1-2 09:07 010921 JH_LE4612 2023-1-2 09:07
[Canada] 溫哥華MMC分享 FBI2 2023-1-1 11:29 86547 AVBWU291 2023-1-2 08:04
[Canada] 維多利亞市MMC分享 FBI2 2023-1-1 21:08 05220 FBI2 2023-1-1 21:08
[Japan] 唔載客都要講句唔好意思 kokchun 2022-12-31 22:48 15009 toby_tl10 2023-1-1 01:00
[UK] 曼徹斯特交通局再增購50輛電動雙層客車 wln162 2022-12-31 21:36 05421 wln162 2022-12-31 21:36
[Others] 巴黎Disneyland外的掛接Citaro hkitalk.media 2022-12-28 11:07 04593 hkitalk.media 2022-12-28 11:07
[UK] 曼城機場擺渡車 Fuk19805 2022-12-26 14:14 05318 Fuk19805 2022-12-26 14:14
[Japan] 東京 Hato Bus - Wright 車身、Scania 底盤開篷巴士 日與夜 hkitalk.media 2022-12-25 23:08 36275 hkitalk.media 2022-12-25 23:09
[Japan] 在香港會展展出的日本巴士(多相) hkaiw 2022-12-24 11:19 07703 hkaiw 2022-12-24 11:19
[Canada] 域多利老巴士 FBI2 2022-12-18 14:02 15091 FatStupid 2022-12-20 20:18
[Japan] 都營 Fuel Cell nwfb1001 2022-12-20 11:02 04357 nwfb1001 2022-12-20 11:02
[Canada] [Canada] Sound Transit #91715 - Alexander-Dennis Enviro500 hkitalk.media 2022-12-19 12:25 04670 hkitalk.media 2022-12-19 12:25
[Singapore] 新加坡NUS校園內的 BYD B12A03 (PD649T) hkitalk.media 2022-12-19 12:19 06273 hkitalk.media 2022-12-19 12:19
[Canada] [Canada] BC Transit #9030 - Dennis Trident / TransBus DM5000 車身 hkitalk.media 2022-12-19 12:07 04689 hkitalk.media 2022-12-19 12:07
下一頁 »

快速發帖

還可輸入 80 個字符
您需要登錄後才可以發帖 登入 | 會員申請加入

本版積分規則

Advertisement

Advertisement

Advertisement

Advertisement

Advertisement

Advertisement

Advertisement

Advertisement

站規|清理本站Cookies|手機版|hkitalk.net 香港交通資訊網

GMT+8, 2026-5-6 05:32

Powered by Discuz! X3.5

© 2001-2026 Discuz! Team.

返回頂部 返回版塊